Waarnemingen

Advertentie
Mijn weer
St. Athan, Groot Brittannië (3716): temperatuur & dauwpunt: 17.10.2017 09:00:00 - 23.10.2017 09:00:00 (BST)St. Athan, Groot Brittannië (3716): temperatuur -20cm & temperatuur -100cm: 17.10.2017 09:00:00 - 23.10.2017 09:00:00 (BST)St. Athan, Groot Brittannië (3716): windsnelheid & windstoten: 17.10.2017 09:00:00 - 23.10.2017 09:00:00 (BST)St. Athan, Groot Brittannië (3716): windrichting: 17.10.2017 09:00:00 - 23.10.2017 09:00:00 (BST)St. Athan, Groot Brittannië (3716): luchtdruk: 17.10.2017 09:00:00 - 23.10.2017 09:00:00 (BST)St. Athan, Groot Brittannië (3716): zicht: 17.10.2017 09:00:00 - 23.10.2017 09:00:00 (BST)St. Athan, Groot Brittannië (3716): Zonneschijnduur: 17.10.2017 09:00:00 - 23.10.2017 09:00:00 (BST)St. Athan, Groot Brittannië (3716): neerslag: 17.10.2017 09:00:00 - 23.10.2017 09:00:00 (BST)
Datum & Tijd tt [°C] td [°C] tt -20cm [°C] tt -100cm [°C] ff [km/u] ff [kn] fx [km/u] fx [kn] dd ppp [hPa] vv [km] sd [min] rr [mm]
23.10.2017 09:00:00 - - - - - - - - - - - - -
23.10.2017 08:00:00 12,9 12,7 - - 9 5 - - ZZW 1015,5 5 0 -
23.10.2017 07:00:00 12,3 12,1 - - 9 5 - - ZZO 1015,7 8 0 -
23.10.2017 06:00:00 12,3 11,5 - - 8 4 - - Z 1016,3 4,3 0 -
23.10.2017 05:00:00 12,9 10,9 - - 13 7 - - ZW 1016,6 10 0 0,2
23.10.2017 04:00:00 13,0 11,0 - - 16 9 - - ZW 1017,0 10 0 0,0
23.10.2017 03:00:00 13,0 10,9 - - 18 10 - - ZW 1017,6 10 0 0,0
23.10.2017 02:00:00 12,9 10,9 - - 22 12 - - WZW 1017,9 10 0 0,0
23.10.2017 01:00:00 12,8 11,1 - - 24 13 - - WZW 1018,1 10 - 0,2
23.10.2017 00:00:00 13,2 10,4 - - 24 13 - - W 1018,3 10 0 0,0
22.10.2017 23:00:00 12,7 10,0 - - 22 12 - - W 1018,7 10 0 0,0
22.10.2017 22:00:00 11,6 10,3 - - 16 9 - - WNW 1019,0 10 0 0,2
22.10.2017 21:00:00 12,4 9,2 - - 21 11 48 26 W 1018,8 10 0 -
22.10.2017 20:00:00 12,7 8,8 - - 28 15 46 25 W 1018,6 10 0 0,0
22.10.2017 19:00:00 12,6 8,6 - - 26 14 46 25 WNW 1018,0 10 0 0,0
22.10.2017 18:00:00 12,6 7,6 - - 28 15 48 26 WNW 1017,6 10 0 0,0
22.10.2017 17:00:00 12,8 8,0 - - 35 19 57 31 WNW 1017,2 10 18 0,0
22.10.2017 16:00:00 13,0 8,4 - - 41 22 65 35 W 1017,1 10 12 0,0
22.10.2017 15:00:00 12,3 8,9 - - 35 19 68 37 W 1016,4 10 42 0,0
22.10.2017 14:00:00 12,7 8,8 - - 39 21 61 33 WNW 1016,4 10 42 0,0
22.10.2017 13:00:00 12,5 8,8 - - 39 21 61 33 WNW 1016,1 10 54 0,0
22.10.2017 12:00:00 11,9 7,9 - - 35 19 67 36 WNW 1015,7 10 36 0,0
22.10.2017 11:00:00 11,3 7,0 - - 41 22 67 36 WNW 1015,2 10 30 0,0
22.10.2017 10:00:00 11,2 5,1 13,7 14,7 46 25 74 40 WNW 1014,8 10 48 0,0
22.10.2017 09:00:00 10,1 4,0 - - 39 21 70 38 WNW 1014,3 10 12 0,0
22.10.2017 08:00:00 10,0 4,0 - - 35 19 57 31 WNW 1013,4 10 0 0,0
22.10.2017 07:00:00 10,1 4,4 - - 39 21 63 34 WNW 1013,1 10 0 0,0
22.10.2017 06:00:00 10,3 5,2 - - 41 22 65 35 WNW 1012,5 10 0 0,0
22.10.2017 05:00:00 10,7 4,8 - - 48 26 72 39 WNW 1011,5 10 0 0,0
22.10.2017 04:00:00 10,6 5,2 - - 41 22 61 33 WNW 1011,0 10 0 -
22.10.2017 03:00:00 10,8 5,5 - - 35 19 65 35 WNW 1010,1 10 0 0,0
22.10.2017 02:00:00 11,1 6,5 - - 42 23 65 35 WNW 1009,4 10 0 0,0
22.10.2017 01:00:00 11,0 7,0 - - 39 21 67 36 WNW 1008,4 10 - 0,6
22.10.2017 00:00:00 11,1 8,5 - - 39 21 68 37 WNW 1007,3 10 0 0,4
21.10.2017 23:00:00 10,9 9,2 - - 41 22 74 40 WNW 1006,1 5 0 1,2
21.10.2017 22:00:00 12,3 9,0 - - 42 23 76 41 W 1004,6 10 0 0,0
21.10.2017 21:00:00 12,6 8,8 - - 50 27 80 43 W 1003,4 10 0 0,6
21.10.2017 20:00:00 11,7 9,8 - - 48 26 72 39 W 1002,4 3,1 0 0,8
21.10.2017 19:00:00 13,1 10,4 - - 46 25 70 38 W 1000,8 9 0 0,2
21.10.2017 18:00:00 13,0 11,6 - - 41 22 67 36 W 999,2 9 0 0,2
21.10.2017 17:00:00 12,2 11,7 - - 50 27 78 42 WZW 998,7 4,8 0 1,8
21.10.2017 16:00:00 11,7 10,5 - - 54 29 81 44 WZW 998,4 3,5 6 1,0
21.10.2017 15:00:00 12,1 10,3 - - 59 32 87 47 WZW 998,0 3,5 0 0,8
21.10.2017 14:00:00 12,7 9,9 - - 57 31 80 43 WZW 997,7 3,5 0 0,2
21.10.2017 13:00:00 12,9 9,2 - - 54 29 91 49 WZW 997,9 8 6 0,0
21.10.2017 12:00:00 12,7 9,4 - - 50 27 76 41 ZW 998,1 8 6 0,0
21.10.2017 11:00:00 13,0 9,1 - - 52 28 70 38 ZW 997,7 5 12 0,0
21.10.2017 10:00:00 13,0 9,2 14,2 14,7 46 25 67 36 ZW 997,6 10 6 0,4
21.10.2017 09:00:00 12,2 9,2 - - 37 20 65 35 ZW 997,2 10 0 0,4
21.10.2017 08:00:00 13,0 8,6 - - 42 23 65 35 ZW 996,9 10 0 0,2
21.10.2017 07:00:00 13,0 9,0 - - 35 19 68 37 ZZW 997,4 9 0 -
21.10.2017 06:00:00 13,4 8,9 - - 34 18 55 30 ZZW 997,5 10 0 -
21.10.2017 05:00:00 13,5 8,8 - - 39 21 59 32 ZW 997,6 10 0 -
21.10.2017 04:00:00 13,5 9,3 - - 39 21 61 33 ZW 998,0 10 0 -
21.10.2017 03:00:00 14,0 10,9 - - 29 16 46 25 ZW 998,3 7 0 -
21.10.2017 02:00:00 14,3 11,4 - - 16 9 - - Z 998,9 10 0 -
21.10.2017 01:00:00 14,1 10,8 - - 22 12 46 25 ZZW 999,1 10 - -
21.10.2017 00:00:00 14,4 11,0 - - 26 14 - - ZW 999,6 10 0 -
20.10.2017 23:00:00 14,2 13,9 - - 22 12 54 29 ZZO 999,7 2,4 0 -
20.10.2017 22:00:00 13,9 13,0 - - 37 20 57 31 ZZO 1000,1 8 0 -
20.10.2017 21:00:00 13,5 12,3 - - 22 12 - - ZZO 1001,3 7 0 0,8
20.10.2017 20:00:00 13,4 11,6 - - 26 14 - - ZZO 1002,9 8 0 2,0
20.10.2017 19:00:00 13,8 10,7 - - 21 11 - - ZZO 1004,3 10 0 0,0
20.10.2017 18:00:00 13,4 9,4 - - 18 10 - - ZZO 1005,4 10 0 0,0
20.10.2017 17:00:00 13,2 8,9 - - 15 8 - - Z 1006,2 10 6 0,0
20.10.2017 16:00:00 13,3 7,7 - - 13 7 - - ZZW 1007,0 10 0 0,0
20.10.2017 15:00:00 13,5 6,9 - - 16 9 - - ZW 1007,1 10 18 0,0
20.10.2017 14:00:00 13,5 7,2 - - 22 12 - - WZW 1007,5 10 60 0,0
20.10.2017 13:00:00 13,3 7,0 - - 24 13 - - WZW 1007,6 10 18 0,0
20.10.2017 12:00:00 13,1 6,4 - - 28 15 - - W 1007,5 10 30 0,0
20.10.2017 11:00:00 12,5 7,1 - - 28 15 46 25 W 1007,2 10 30 0,0
20.10.2017 10:00:00 11,8 8,3 14,2 14,7 28 15 46 25 WNW 1006,8 10 12 0,0
20.10.2017 09:00:00 11,2 8,1 - - 31 17 50 27 W 1005,5 10 0 0,0
20.10.2017 08:00:00 10,9 8,7 - - 35 19 55 30 W 1004,0 10 0 0,0
20.10.2017 07:00:00 11,2 8,7 - - 37 20 61 33 WNW 1002,3 10 0 0,0
20.10.2017 06:00:00 11,2 9,9 - - 39 21 67 36 W 1001,0 10 0 1,0
20.10.2017 05:00:00 11,5 10,3 - - 42 23 65 35 W 999,1 3,9 0 1,0
20.10.2017 04:00:00 12,6 11,8 - - 39 21 63 34 W 996,9 9 0 0,0
20.10.2017 03:00:00 13,4 11,4 - - 42 23 65 35 W 995,0 10 0 0,0
20.10.2017 02:00:00 13,7 12,2 - - 41 22 67 36 W 992,9 10 0 0,4
20.10.2017 01:00:00 13,7 12,3 - - 42 23 65 35 WZW 991,8 10 - 0,0
20.10.2017 00:00:00 13,0 11,0 - - 24 13 - - ZZW 991,7 10 0 0,0
19.10.2017 23:00:00 12,8 10,7 - - 22 12 - - Z 992,0 10 0 0,0
19.10.2017 22:00:00 12,9 10,7 - - 24 13 - - Z 992,8 10 0 0,0
19.10.2017 21:00:00 13,0 10,1 - - 24 13 - - Z 993,2 10 0 0,0
19.10.2017 20:00:00 14,1 13,3 - - 22 12 46 25 ZZO 993,4 10 0 0,4
19.10.2017 19:00:00 13,5 12,6 - - 24 13 - - ZO 994,1 3,8 0 0,0
19.10.2017 18:00:00 13,9 12,4 - - 18 10 50 27 ZO 995,1 10 0 0,0
19.10.2017 17:00:00 14,2 12,1 - - 18 10 - - ZO 996,2 10 0 1,2
19.10.2017 16:00:00 14,2 12,5 - - 13 7 - - ZO 997,1 10 0 0,0
19.10.2017 15:00:00 13,9 13,5 - - 13 7 - - OZO 998,4 9 0 0,0
19.10.2017 14:00:00 13,8 13,5 - - 16 9 - - OZO 999,0 8 0 0,0
19.10.2017 13:00:00 12,7 12,4 - - 13 7 - - O 1000,0 6 0 0,2
19.10.2017 12:00:00 12,2 11,8 - - 15 8 - - O 1001,4 5 0 0,2
19.10.2017 11:00:00 12,2 11,6 - - 16 9 - - O 1002,1 6 0 0,0
19.10.2017 10:00:00 11,8 11,4 14,4 14,7 18 10 - - O 1003,3 6 0 0,0
19.10.2017 09:00:00 11,7 11,6 - - 15 8 - - O 1003,9 4,0 0 0,0
19.10.2017 08:00:00 11,7 11,6 - - 16 9 - - O 1003,9 0,6 0 0,0
19.10.2017 07:00:00 12,0 11,8 - - 15 8 - - OZO 1004,6 2,3 0 0,0
19.10.2017 06:00:00 11,8 11,6 - - 13 7 - - OZO 1005,3 2,8 0 0,0
19.10.2017 05:00:00 12,3 11,9 - - 11 6 - - O 1006,1 3,9 0 0,0
19.10.2017 04:00:00 12,5 12,0 - - 11 6 - - OZO 1006,8 3,9 0 0,0
19.10.2017 03:00:00 12,3 11,9 - - 13 7 - - OZO 1007,6 3,9 0 0,0
19.10.2017 02:00:00 12,7 11,4 - - 11 6 - - ZO 1007,7 7 0 0,0
19.10.2017 01:00:00 12,8 11,7 - - 11 6 - - OZO 1008,0 8 - 0,0
19.10.2017 00:00:00 12,5 11,6 - - 11 6 - - ZZO 1008,9 5 0 0,0
18.10.2017 23:00:00 12,4 12,1 - - 11 6 - - OZO 1008,7 4,1 0 0,0
18.10.2017 22:00:00 12,0 11,7 - - 15 8 - - O 1008,8 3,6 0 0,0
18.10.2017 21:00:00 11,8 11,5 - - 11 6 - - O 1009,3 3,5 0 0,0
18.10.2017 20:00:00 11,5 11,2 - - 11 6 - - O 1009,8 2,6 0 0,0
18.10.2017 19:00:00 11,4 11,0 - - 11 6 - - ONO 1009,8 4,0 0 0,0
18.10.2017 18:00:00 11,4 10,9 - - 13 7 - - ONO 1009,5 5 0 0,0
18.10.2017 17:00:00 11,4 10,8 - - 15 8 - - ONO 1009,7 4,0 0 0,0
18.10.2017 16:00:00 11,4 10,6 - - 11 6 - - O 1010,0 6 0 0,0
18.10.2017 15:00:00 11,6 10,5 - - 13 7 - - O 1010,1 6 0 0,0
18.10.2017 14:00:00 11,3 10,2 - - 13 7 - - O 1010,3 6 0 0,0
18.10.2017 13:00:00 11,3 10,3 - - 22 12 - - O 1010,7 7 0 0,0
18.10.2017 12:00:00 10,9 10,1 - - 21 11 - - O 1011,1 6 0 0,0
18.10.2017 11:00:00 10,6 10,0 - - 22 12 - - O 1011,2 6 0 0,0
18.10.2017 10:00:00 10,3 9,8 14,7 14,9 21 11 - - O 1011,6 5 0 0,0
18.10.2017 09:00:00 10,2 9,8 - - 18 10 - - ONO 1011,7 5 0 0,2
18.10.2017 08:00:00 10,1 9,7 - - 16 9 - - ONO 1011,5 3,8 0 0,0
18.10.2017 07:00:00 10,3 9,5 - - 15 8 - - ONO 1011,7 5 0 0,0
18.10.2017 06:00:00 10,6 9,6 - - 16 9 - - O 1012,2 7 0 0,0
18.10.2017 05:00:00 10,7 9,8 - - 16 9 - - ONO 1012,4 9 0 0,0
18.10.2017 04:00:00 10,6 9,8 - - 13 7 - - ONO 1013,0 9 0 0,0
18.10.2017 03:00:00 10,3 9,5 - - 11 6 - - O 1013,8 10 0 0,0
18.10.2017 02:00:00 10,3 9,3 - - 9 5 - - ONO 1014,2 10 0 0,0
18.10.2017 01:00:00 10,3 9,1 - - 9 5 - - O 1014,9 10 - 0,0
18.10.2017 00:00:00 10,8 8,9 - - 9 5 - - O 1015,8 10 0 0,0
17.10.2017 23:00:00 11,5 9,7 - - 9 5 - - ZO 1016,4 10 0 0,0
17.10.2017 22:00:00 11,9 10,7 - - 9 5 - - ZZO 1016,7 10 0 0,2
17.10.2017 21:00:00 12,1 11,2 - - 9 5 - - ZO 1016,3 10 0 0,0
17.10.2017 20:00:00 11,7 9,4 - - 8 4 - - O 1016,1 10 0 0,0
17.10.2017 19:00:00 12,1 8,4 - - 5 3 - - NO 1016,1 10 0 0,0
17.10.2017 18:00:00 13,1 8,1 - - 2 1 - - NW 1016,6 10 0 0,0
17.10.2017 17:00:00 13,6 8,2 - - 8 4 - - W 1017,1 10 0 0,0
17.10.2017 16:00:00 13,9 7,2 - - 9 5 - - WNW 1017,3 10 0 0,0
17.10.2017 15:00:00 14,0 7,1 - - 13 7 - - W 1018,3 10 0 0,0
17.10.2017 14:00:00 14,2 8,0 - - 15 8 - - W 1018,8 10 36 0,0
17.10.2017 13:00:00 15,0 8,4 - - 21 11 - - W 1019,3 10 48 0,0
17.10.2017 12:00:00 14,7 7,5 - - 18 10 - - W 1019,4 10 54 0,0
17.10.2017 11:00:00 14,5 8,6 - - 21 11 - - WZW 1019,1 10 54 0,0
17.10.2017 10:00:00 13,5 9,3 15,0 14,9 21 11 - - WZW 1019,1 10 42 0,0
17.10.2017 09:00:00 12,8 8,9 - - 24 13 - - WZW 1019,0 10 6 0,0

tt = temperatuur
td = dauwpunt
tt -20cm = temperatuur -20cm
tt -100cm = temperatuur -100cm
ff = windsnelheid
fx = windstoten
dd = windrichting
ppp = luchtdruk
vv = zicht
sd = Zonneschijnduur
rr = neerslag

Weerstations in de omgeving